Flag for Germany Weather past 2 weeks in Elmshorn, Schleswig-Holstein, Germany

Now
45 °F

Passing clouds.


Feels Like: 39 °F
Forecast: 41 / 54 °F
Wind: 12 mph from Southwest

Location: Hamburg-Fuhlsbuettel

Current Time: Mar 7, 2015 at 2:08:28 AM

Latest Report: Mar 7, 2015 at 1:20 AM


Visibility: N/A

Pressure: 30.45 "Hg

Humidity: 76%

Dew point: 37 °F

Location of ElmshornLocation

Historic Weather in Elmshorn — Graph

°F

Elmshorn temperature yesterday

Maximum temperature yesterday: 48 °F (at 12:50 PM)
Minimum temperature yesterday: 41 °F (at 12:20 AM)
Average temperature yesterday: 44 °F

Past Weeks' High & Low Weather Summary

 TemperatureHumidityPressure
High48 °F (Mar 6, 12:50 PM)100% (Feb 20, 4:50 PM)30.54 "Hg (Feb 20, 4:50 PM)
Low32 °F (Feb 28, 12:20 AM)57% (Feb 25, 3:20 PM)29.24 "Hg (Feb 21, 9:50 AM)
Average40 °F84%29.84 "Hg
* Reported Feb 20 12:20 AM — Mar 7 12:50 AM, Elmshorn, Weather by CustomWeather, © 2015

Note: Actual official high and low records may vary slightly from our data, if they occured in-between our weather recording intervals... More about our weather records

Advertising

Elmshorn weather history for previous 24 hours

 ConditionsComfort  
Time TempWeatherWind HumidityBarometerVisibility
12:50 AM
Sat, Mar 7
45 °FPassing clouds.12 mph76%30.45 "HgN/A
12:20 AM45 °FPassing clouds.10 mph76%30.48 "HgN/A
11:50 PM
Fri, Mar 6
45 °FPassing clouds.9 mph81%30.48 "HgN/A
11:20 PM45 °FPassing clouds.9 mph76%30.48 "HgN/A
10:50 PM45 °FPassing clouds.9 mph81%30.48 "HgN/A
10:20 PM45 °FPassing clouds.10 mph81%30.48 "HgN/A
9:50 PM45 °FPassing clouds.10 mph81%30.48 "HgN/A
9:20 PM46 °FPassing clouds.9 mph76%30.48 "HgN/A
8:50 PM46 °FPassing clouds.9 mph76%30.45 "HgN/A
8:20 PM46 °FPassing clouds.9 mph76%30.45 "HgN/A
7:50 PM45 °FPassing clouds.6 mph81%30.48 "HgN/A
7:20 PM46 °FPartly cloudy.3 mph76%30.48 "HgN/A
6:50 PM46 °FPartly cloudy.5 mph76%30.48 "HgN/A
6:20 PM48 °FLight rain. Passing clouds.9 mph71%30.48 "HgN/A
5:50 PM48 °FPartly sunny.7 mph71%30.48 "HgN/A
5:20 PM48 °FBroken clouds.8 mph71%30.45 "HgN/A
4:50 PM48 °FPartly sunny.12 mph71%30.45 "HgN/A
4:20 PM48 °FPartly sunny.8 mph76%30.45 "HgN/A
3:50 PM48 °FPartly sunny.7 mph71%30.48 "HgN/A
3:20 PM48 °FPartly sunny.9 mph71%30.45 "HgN/A
2:50 PM48 °FPartly sunny.10 mph71%30.48 "HgN/A
2:20 PM48 °FPartly sunny.12 mph71%30.48 "HgN/A
1:50 PM48 °FPartly sunny.13 mph71%30.48 "HgN/A
1:20 PM48 °FPartly sunny.10 mph71%30.48 "HgN/A
12:50 PM48 °FPartly sunny.12 mph76%30.48 "HgN/A
12:20 PM46 °FPartly sunny.12 mph76%30.48 "HgN/A
11:50 AM46 °FPartly sunny.12 mph76%30.48 "HgN/A
11:20 AM46 °FPartly sunny.12 mph76%30.48 "HgN/A
10:50 AM45 °FPartly sunny.10 mph81%30.48 "HgN/A
10:20 AM45 °FPartly sunny.9 mph81%30.48 "HgN/A
9:50 AM43 °FPartly sunny.9 mph81%30.48 "HgN/A
9:20 AM43 °FPartly sunny.8 mph81%30.48 "HgN/A
8:50 AM43 °FPartly sunny.8 mph81%30.48 "HgN/A
8:20 AM41 °FPartly sunny.9 mph87%30.48 "HgN/A
7:50 AM41 °FPartly sunny.8 mph87%30.48 "HgN/A
7:20 AM41 °FBroken clouds.8 mph87%30.48 "HgN/A
6:50 AM41 °FPassing clouds.7 mph87%30.48 "HgN/A
6:20 AM41 °FPassing clouds.8 mph87%30.48 "HgN/A
5:50 AM41 °FLight rain. Passing clouds.8 mph87%30.48 "HgN/A
5:20 AM41 °FScattered showers. Passing clouds.6 mph87%30.48 "HgN/A
4:50 AM41 °FLight rain. Passing clouds.8 mph87%30.48 "HgN/A
4:20 AM41 °FLight rain. Passing clouds.6 mph87%30.48 "HgN/A
3:50 AM41 °FLight rain. Passing clouds.8 mph87%30.48 "HgN/A
3:20 AM41 °FLight rain. Passing clouds.5 mph87%30.48 "HgN/A
2:50 AM41 °FLight rain. Passing clouds.7 mph87%30.48 "HgN/A
2:20 AM41 °FPassing clouds.7 mph87%30.51 "HgN/A
Weather by CustomWeather, © 2015

See weather overviewHow to use our weather pages